EW2769 Weather Reports


time (UTC)temp
F
wind
direction
speed
knots
gust
knots
rain 1hr
in
rain 24hr
in
rain mn
in
humidity
%
barometer
mb
20260508060100 38 281 2.6 6.1 0.00 0.00 0.00 24 1004.9
20260508060008 0 0.0 0.0 0.00 0.01 0.00 1004.6
20260508054638 39 322 1.7 8.7 0.00 0.00 0.00 29 1004.9
20260508054503 0 0.0 0.0 0.00 0.01 0.00 1004.7
20260508053105 0 0.0 0.0 0.00 0.01 0.00 1004.8
20260508053059 39 325 0.0 7.0 0.00 0.00 0.00 29 1004.8
20260508051555 0 0.0 0.0 0.00 0.01 0.00 1005.0
20260508050052 0 0.0 0.0 0.00 0.01 0.00 1005.1
20260508050042 40 14 2.6 9.6 0.00 0.00 0.00 33 1004.7
20260508044554 40 342 4.3 10.4 0.00 0.00 0.00 36 1004.9
20260508044546 0 0.0 0.0 0.00 0.01 0.00 1005.1
20260508043038 40 355 5.2 12.2 0.00 0.02 0.00 37 1005.0
20260508043032 0 0.0 0.0 0.00 0.01 0.00 1005.2
20260508041547 40 345 6.1 13.0 0.00 0.02 0.00 41 1005.0
20260508041522 0 0.0 0.0 0.00 0.01 0.00 1005.1
20260508040035 39 341 4.3 8.7 0.00 0.02 0.00 46 1005.1
20260508040018 0 0.0 0.0 0.00 0.01 0.01 1005.2
20260508034532 39 316 0.9 7.8 0.00 0.02 0.00 53 1005.1
20260508034513 0 0.0 0.0 0.00 0.01 0.01 1005.1
20260508033036 39 322 2.6 7.0 0.00 0.14 0.00 56 1005.1
20260508033013 0 0.0 0.0 0.00 0.01 0.01 1005.0
20260508031527 39 287 0.9 6.1 0.00 0.14 0.00 56 1005.0
20260508031505 0 0.0 0.0 0.00 0.01 0.01 1004.8
20260508030009 39 282 0.9 4.3 0.00 0.14 0.00 55 1004.8
20260508030000 0 0.0 0.0 0.00 0.01 0.01 1004.9
20260508024605 0 0.0 0.0 0.00 0.01 0.01 1004.7
20260508024510 39 256 0.0 1.7 0.00 0.14 0.00 57 1004.9
20260508023055 39 305 0.0 2.6 0.00 0.20 0.00 59 1004.8
20260508023053 0 0.0 0.0 0.00 0.01 0.01 1004.7
20260508021613 39 249 0.0 1.7 0.00 0.20 0.00 61 1004.7
20260508021534 0 0.0 0.0 0.00 0.01 0.01 1004.8
20260508020051 39 256 0.0 2.6 0.00 0.20 0.00 63 1004.8
20260508020028 0 0.0 0.0 0.00 0.01 0.01 1004.8
20260508014551 39 272 0.0 0.0 0.00 0.20 0.00 63 1004.7
20260508014531 0 0.0 0.0 0.00 0.01 0.01 1004.7
20260508013049 40 266 0.0 0.0 0.00 0.27 0.00 64 1004.8
20260508013019 0 0.0 0.0 0.00 0.01 0.01 1004.8
20260508011555 41 251 0.0 0.9 0.00 0.27 0.00 64 1004.8
20260508011517 0 0.0 0.0 0.00 0.01 0.01 1004.8
20260508010045 41 289 0.0 5.2 0.00 0.27 0.00 63 1004.7
20260508010010 0 0.0 0.0 0.00 0.01 0.01 1004.9
20260508004542 42 256 0.9 6.1 0.00 0.27 0.00 63 1004.8
20260508004505 0 0.0 0.0 0.00 0.01 0.01 1004.8
20260508003029 42 324 1.7 7.0 0.00 0.36 0.00 62 1004.6
20260508003002 0 0.0 0.0 0.00 0.01 0.01 1004.8
20260508001545 0 0.0 0.0 0.00 0.01 0.01 1004.8
20260508001534 43 329 1.7 7.0 0.00 0.36 0.00 62 1004.4
20260508000038 0 0.0 0.0 0.00 0.01 0.01 1004.7
20260508000028 43 328 4.3 12.2 0.00 0.36 0.00 61 1004.3
20260507234535 0 0.0 0.0 0.00 0.01 0.01 1004.6
20260507234531 43 299 7.0 11.3 0.00 0.36 0.00 59 1004.2
20260507233030 41 265 6.1 11.3 0.00 0.01 0.01 66 1004.6
20260507233021 44 302 3.5 13.9 0.00 0.42 0.00 59 1004.3
20260507231530 41 290 7.0 11.3 0.00 0.01 0.01 66 1004.7
20260507231518 45 312 6.1 16.5 0.00 0.42 0.00 57 1004.2
20260507230028 41 250 7.0 18.2 0.00 0.01 0.01 65 1004.6
20260507230017 45 296 6.1 13.0 0.00 0.42 0.00 59 1004.0
20260507224529 42 252 7.0 13.9 0.00 0.01 0.01 64 1004.6
20260507224519 45 293 6.1 13.9 0.00 0.42 0.00 59 1004.0
20260507223028 43 266 9.6 20.9 0.00 0.01 0.01 62 1004.4
20260507223005 45 179 7.0 16.5 0.00 0.50 0.00 57 1004.0
20260507221521 42 235 7.8 16.5 0.00 0.01 0.01 64 1004.4
20260507221503 46 271 5.2 13.0 0.00 0.50 0.00 55 1004.0
20260507220020 42 281 6.1 16.5 0.00 0.01 0.01 65 1004.3
20260507220002 47 299 5.2 15.6 0.00 0.50 0.00 53 1003.8
20260507214522 42 253 7.8 17.4 0.00 0.01 0.01 64 1004.2
20260507214502 47 323 6.1 20.0 0.00 0.50 0.00 53 1003.8
20260507213026 44 254 7.8 17.4 0.00 0.01 0.01 61 1004.1
20260507213003 48 328 5.2 14.8 0.00 0.56 0.00 55 1003.8
20260507211559 48 248 7.8 20.9 0.00 0.56 0.00 54 1003.9
20260507211519 43 295 7.0 13.9 0.00 0.01 0.01 63 1004.1
20260507210120 47 274 4.3 9.6 0.00 0.56 0.00 59 1003.8
20260507210018 43 257 7.8 14.8 0.00 0.01 0.01 65 1004.1
20260507204601 46 273 8.7 18.2 0.00 0.56 0.00 57 1003.7
20260507204518 43 250 5.2 14.8 0.00 0.01 0.01 66 1003.9
20260507203043 46 338 9.6 19.1 0.00 0.62 0.00 58 1003.8
20260507201541 46 308 6.1 20.0 0.00 0.62 0.00 58 1003.7
20260507201514 42 276 10.4 18.2 0.00 0.01 0.01 66 1004.1
20260507200052 46 298 13.0 22.6 0.00 0.62 0.00 56 1003.7
20260507200026 43 270 10.4 22.6 0.00 0.01 0.01 64 1003.9
20260507194540 47 323 7.8 20.0 0.00 0.62 0.00 57 1003.5
20260507194512 42 222 8.7 13.9 0.00 0.01 0.01 68 1004.1
20260507193104 47 323 6.1 23.5 0.00 0.78 0.00 58 1003.4
20260507191540 49 330 6.1 19.1 0.00 0.78 0.00 62 1003.2
20260507191509 42 286 7.8 14.8 0.00 0.01 0.01 75 1004.0
20260507190039 49 341 10.4 22.6 0.00 0.78 0.00 62 1003.2
20260507190020 42 287 5.2 13.0 0.00 0.01 0.01 86 1004.1
20260507184535 49 120 5.2 13.0 0.00 0.78 0.00 60 1003.2
20260507184506 43 242 5.2 12.2 0.00 0.01 0.01 87 1004.1
20260507183034 49 326 7.0 14.8 0.00 0.89 0.00 58 1003.4
20260507181519 46 313 6.1 14.8 0.00 0.89 0.00 51 1003.7
20260507181505 41 262 7.0 13.9 0.00 0.01 0.01 88 1004.2
20260507180016 45 353 9.6 19.1 0.00 0.89 0.00 50 1003.7
20260507180006 41 283 5.2 12.2 0.01 0.01 0.01 90 1004.3
20260507174516 46 355 6.1 19.1 0.00 0.89 0.00 46 1003.6
20260507174502 40 286 6.1 12.2 0.01 0.01 0.01 94 1004.4
20260507173101 38 277 6.1 10.4 0.01 0.01 0.01 94 1004.5
20260507173019 46 261 9.6 18.2 0.00 0.97 0.00 51 1003.7
20260507171549 38 262 5.2 12.2 0.01 0.01 0.01 92 1004.6
20260507171512 46 314 4.3 13.0 0.00 0.97 0.00 47 1003.8
20260507170046 39 257 5.2 13.0 0.00 0.00 0.00 91 1004.6
20260507170011 46 351 7.0 20.0 0.00 0.97 0.00 49 1003.7
20260507164542 39 247 7.0 13.0 0.00 0.00 0.00 93 1004.7
20260507164509 47 297 10.4 19.1 0.00 0.97 0.00 49 1003.7
20260507163055 49 289 8.7 15.6 0.00 1.05 0.00 49 1003.7
20260507163040 40 268 5.2 12.2 0.00 0.00 0.00 93 1004.6
20260507161606 49 304 5.2 14.8 0.00 1.05 0.00 49 1003.6
20260507161540 41 266 7.0 13.0 0.00 0.00 0.00 92 1004.4
20260507160039 42 259 7.0 13.0 0.00 0.00 0.00 92 1004.3
20260507154546 48 27 1.7 12.2 0.00 1.05 0.00 45 1004.1
20260507154540 42 277 5.2 10.4 0.00 0.00 0.00 93 1004.3
20260507153045 42 244 2.6 8.7 0.00 0.00 0.00 95 1004.4
20260507153043 47 295 0.9 8.7 0.00 1.12 0.00 38 1004.4
20260507151538 47 297 0.9 9.6 0.00 1.12 0.00 27 1004.6
20260507151521 42 265 3.5 8.7 0.00 0.00 0.00 95 1004.4
20260507150034 46 359 1.7 7.0 0.00 1.12 0.00 14 1004.7
20260507150019 41 257 5.2 13.0 0.00 0.00 0.00 96 1004.4
20260507144542 46 243 1.7 7.8 0.00 1.12 0.00 19 1004.9
20260507144517 42 272 5.2 12.2 0.00 0.00 0.00 96 1004.2
20260507143029 46 261 0.0 7.8 0.00 1.21 1.12 20 1004.9
20260507143014 41 249 6.1 12.2 0.00 0.00 0.00 97 1004.1
20260507141526 46 316 1.7 7.8 0.00 1.21 1.12 20 1005.0
20260507141511 41 240 5.2 11.3 0.00 0.00 0.00 98 1003.9
20260507140117 45 303 0.9 9.6 0.00 1.21 1.12 19 1005.1
20260507140010 41 250 4.3 8.7 0.00 0.00 0.00 98 1003.7
20260507134606 46 295 1.7 7.8 0.00 1.21 1.12 7 1005.1
20260507134509 40 261 6.1 11.3 0.00 0.00 0.00 98 1003.6
20260507133052 45 325 4.3 9.6 0.00 1.23 1.12 100 1005.2
20260507133006 40 255 4.3 8.7 0.00 0.00 0.00 99 1003.2
20260507131602 40 245 4.3 12.2 0.00 0.00 0.00 99 1002.7
20260507131537 44 282 5.2 11.3 0.00 1.23 1.12 100 1005.4
20260507130052 0 0.0 0.0 0.00 0.00 0.00 1002.5
20260507130039 43 272 1.7 7.8 0.00 1.23 1.12 100 1005.5
20260507124546 0 0.0 0.0 0.00 0.00 0.00 1002.6
20260507124527 43 261 1.7 7.0 0.00 1.23 1.12 100 1005.5
20260507123043 0 0.0 0.0 0.00 0.00 0.00 1002.4
20260507123032 43 251 0.0 8.7 0.00 1.23 1.12 100 1005.4
20260507121539 0 0.0 0.0 0.00 0.00 0.00 1002.6
20260507121518 42 304 4.3 9.6 0.00 1.23 1.12 100 1005.5
20260507120026 0 0.0 0.0 0.00 0.00 0.00 1002.8
20260507120014 42 285 0.9 7.0 0.00 1.23 1.12 100 1005.5
20260507114521 0 0.0 0.0 0.00 0.00 0.00 1002.8
20260507114509 41 290 0.0 7.8 0.00 1.23 1.12 100 1005.6
20260507113029 0 0.0 0.0 0.00 0.00 0.00 1002.8
20260507113006 41 266 0.0 6.1 0.00 1.23 1.12 100 1005.7
20260507111555 41 249 0.9 3.5 0.00 1.23 1.12 100 1005.6
20260507111502 0 0.0 0.0 0.00 0.00 0.00 1002.7
20260507110058 0 0.0 0.0 0.00 0.00 0.00 1002.8
20260507110040 41 285 0.9 3.5 0.00 1.23 1.12 100 1005.4
20260507104552 0 0.0 0.0 0.00 0.00 0.00 1002.5
20260507104524 40 233 1.7 5.2 0.00 1.23 1.12 100 1005.4
20260507103050 0 0.0 0.0 0.00 0.00 0.00 1002.4
20260507103020 40 341 0.0 3.5 0.00 1.23 1.12 100 1005.1
20260507101547 0 0.0 0.0 0.00 0.00 0.00 1002.3
20260507101517 40 256 0.9 5.2 0.00 1.23 1.12 100 1005.1
20260507100039 0 0.0 0.0 0.00 0.00 0.00 1002.2
20260507100013 40 295 0.9 5.2 0.00 1.23 1.12 100 1005.2
20260507094532 0 0.0 0.0 0.00 0.00 0.00 1002.3
20260507094506 40 307 0.0 5.2 0.00 1.23 1.12 100 1004.8
20260507093036 0 0.0 0.0 0.00 0.00 0.00 1002.2
20260507093002 40 312 0.0 3.5 0.00 1.23 1.12 100 1004.9
20260507091558 40 313 0.0 3.5 0.00 1.23 1.12 100 1004.8
20260507091508 0 0.0 0.0 0.00 0.00 0.00 1002.1
20260507090005 0 0.0 0.0 0.00 0.00 0.00 1002.1
20260507084600 0 0.0 0.0 0.00 0.00 0.00 1002.3
20260507084541 40 293 0.0 3.5 0.00 1.23 1.12 100 1004.7
20260507083102 0 0.0 0.0 0.00 0.00 0.00 1002.2
20260507083036 40 287 0.0 2.6 0.00 1.25 1.12 100 1004.6
20260507081551 0 0.0 0.0 0.00 0.00 0.00 1002.0
20260507081535 40 283 0.0 1.7 0.00 1.25 1.12 100 1004.8
20260507080113 0 0.0 0.0 0.00 0.00 0.00 1002.0
20260507080024 40 282 0.0 0.9 0.00 1.25 1.12 100 1004.7
20260507074546 0 0.0 0.0 0.00 0.00 0.00 1002.1
20260507074520 40 305 0.0 0.0 0.00 1.25 1.12 100 1004.6
20260507073038 0 0.0 0.0 0.00 0.00 0.00 1002.0
20260507073016 40 358 0.0 0.0 0.00 1.26 1.12 100 1004.5
20260507071518 0 0.0 0.0 0.00 0.00 0.00 1002.0
20260507071511 40 358 0.0 0.0 0.00 1.26 1.12 100 1004.4
20260507070014 0 0.0 0.0 0.00 0.00 0.00 1002.0
20260507070011 40 359 0.0 1.7 0.00 1.26 1.12 100 1004.2
20260507064603 41 18 0.9 6.1 0.00 1.26 1.12 100 1004.1
20260507064510 0 0.0 0.0 0.00 0.00 0.00 1002.1
20260507063041 41 348 1.7 8.7 0.00 1.30 1.12 100 1004.3
20260507063006 0 0.0 0.0 0.00 0.00 0.00 1002.0
20260507061527 41 329 1.7 4.3 0.00 1.30 1.12 100 1004.3
20260507061504 0 0.0 0.0 0.00 0.00 0.00 1002.1